User: anonymous
Location: Caltech
(34.1382°N, 118.1253°W)
Time: 23:44:11
(UTC-07:00)
Language:

Cosmos 1697 Rocket - Orbit

View from above orbital plane
View from above orbital plane
View from above satellite
View from above satellite

Ground track
Ground track

The orbit data is extracted from the following two-line orbital elements,

1 16182U 85097B   14243.76959113 -.00000172  00000-0 -62849-4 0  3508
2 16182 071.0059 354.8383 0008071 205.0553 307.8487 14.16123069491758
Epoch (UTC): 31 August 2014 18:28:12
Eccentricity: 0.0008071
inclination: 71.0059°
perigee height: 832 km
apogee height: 844 km
right ascension of ascending node: 354.8383°
argument of perigee: 205.0553°
revolutions per day: 14.16123069
mean anomaly at epoch: 307.8487°
orbit number at epoch: 49175

The dashed part of the orbit path shows where the satellite is in the earth's shadow,  

DLR